Location: eljas
(40.1958°N, 6.8661°W)
Time: 02:34:20
(UTC+02:00)

Amateur Radio Satellites - All Passes

Search period start: 26 May 2016 02:04
Search period end: 27 May 2016 02:04
Location: eljas, 40.1958°N, 6.8661°W

Satellite Date Start Highest point End Downlink Frequencies (MHz)
Time Altitude Azimuth
AISAT 26 May 02:06:10 02:10:01 28° 264° (W) 02:13:53 437.250
SPROUT 26 May 02:06:33 02:10:50 73° 257° (WSW) 02:15:09 437.525
JAS-2 26 May 02:18:08 02:24:11 26° 90° (E) 02:29:43 435.910
SWISSCUBE 26 May 02:20:17 02:20:40 10° 59° (ENE) 02:21:03 437.505
ITUPSAT 1 26 May 02:25:21 02:25:34 10° 59° (ENE) 02:25:48 437.325
UNISAT 6 26 May 02:26:20 02:27:28 11° 297° (WNW) 02:28:36 437.425
UKube-1 26 May 02:26:57 02:30:29 24° 264° (W) 02:34:02 .
BUGSAT 1 26 May 02:28:15 02:32:18 70° 101° (E) 02:36:17 437.445
50 SAT 26 May 02:28:30 02:29:24 11° 269° (W) 02:30:18 437.505
CUSAT 1 26 May 02:30:42 02:35:52 20° 280° (W) 02:40:34 437.405
AIST 2 26 May 02:35:22 02:36:50 12° 252° (WSW) 02:38:19 435.215
Oscar 19 26 May 02:35:25 02:37:15 12° 89° (E) 02:39:06 437.125/150
POPSAT HIP 1 26 May 02:36:05 02:40:00 39° 288° (WNW) 02:43:53 437.405
QB50P1 26 May 02:36:44 02:40:37 37° 289° (WNW) 02:44:29 145.935-145.965
QB50P2 26 May 02:38:16 02:42:05 34° 289° (WNW) 02:45:54 145.880/145.840
TISAT 1 26 May 02:39:12 02:43:25 72° 75° (ENE) 02:47:38 437.305
POLYITAN 1 26 May 02:40:44 02:44:31 34° 289° (WNW) 02:48:18 437.675
BEESAT 26 May 02:47:13 02:50:22 18° 64° (ENE) 02:53:32 436.000
NANOSAT C BR1 26 May 02:56:54 03:00:17 24° 292° (WNW) 03:03:40 145.865
ISS 26 May 03:00:30 03:01:43 12° 355° (N) 03:02:56 145.825
PHONESAT 2.4 26 May 03:02:32 03:05:40 82° 354° (N) 03:08:48 2401.200-2431.200
RS-15 26 May 03:29:24 03:41:16 50° 46° (NE) 03:53:05 29.354- 29.394
SO-50 26 May 03:42:37 03:47:08 36° 310° (NW) 03:51:39 436.795
DANDE 26 May 03:47:49 03:50:26 12° 285° (WNW) 03:53:01 436.750
SWISSCUBE 26 May 03:52:57 03:57:42 89° 85° (E) 04:02:29 437.505
ITUPSAT 1 26 May 03:57:53 04:02:38 89° 83° (E) 04:07:26 437.325
JAS-2 26 May 04:02:15 04:09:39 59° 290° (WNW) 04:16:19 435.910
Oscar 19 26 May 04:11:58 04:17:08 77° 285° (WNW) 04:22:15 437.125/150
YUBILEINY 26 May 04:16:43 04:24:14 31° 70° (ENE) 04:31:43 435.215
Gurwin Techsat 1B 26 May 04:16:59 04:22:10 49° 100° (E) 04:27:17 435.225
KKS-1 26 May 04:18:29 04:21:33 18° 65° (ENE) 04:24:38 437.445
MOZHAYETS 4 26 May 04:18:56 04:21:08 13° 63° (ENE) 04:23:19
BEESAT 26 May 04:23:10 04:27:46 49° 260° (W) 04:32:23 436.000
ISS 26 May 04:37:14 04:39:15 15° 16° (NNE) 04:41:16 145.825
PHONESAT 2.4 26 May 04:39:19 04:42:25 62° 195° (SSW) 04:45:30 2401.200-2431.200
Cosmos 2504 26 May 04:47:29 04:50:51 13° 60° (ENE) 04:54:15 435.465 / 435.565
ITAMSAT 1 26 May 04:48:50 04:53:42 38° 98° (E) 04:58:31 435.822/435.867
STARS 26 May 04:59:29 05:03:06 25° 68° (ENE) 05:06:42 437.465
AO-7 26 May 05:01:33 05:07:55 24° 94° (E) 05:14:15 29.400- 29.500
Cosmos 2491 26 May 05:10:23 05:17:58 34° 84° (E) 05:25:34 435.465 / 435.565
CUBESAT XI-V 26 May 05:39:27 05:40:40 11° 61° (ENE) 05:41:52 437.345
RS-15 26 May 05:42:12 05:54:01 56° 249° (WSW) 06:05:45 29.354- 29.394
JAS-2 26 May 05:50:34 05:52:57 12° 310° (NW) 05:55:16 435.910
MOZHAYETS 4 26 May 05:53:15 05:57:45 62° 259° (W) 06:02:17
KKS-1 26 May 05:53:34 05:57:48 42° 261° (W) 06:02:04 437.445
Gurwin Techsat 1B 26 May 05:57:48 06:01:44 21° 296° (WNW) 06:05:39 435.225
YUBILEINY 26 May 06:12:58 06:21:27 58° 270° (W) 06:29:58 435.215
ISS 26 May 06:13:00 06:16:14 59° 35° (NE) 06:19:27 145.825
PHONESAT 2.4 26 May 06:16:43 06:18:48 17° 210° (SSW) 06:20:53 2401.200-2431.200
ITAMSAT 1 26 May 06:28:39 06:32:58 27° 294° (WNW) 06:37:16 435.822/435.867
STARS 26 May 06:35:30 06:39:20 29° 263° (W) 06:43:11 437.465
Cosmos 2504 26 May 06:37:28 06:45:50 66° 80° (E) 06:54:35 435.465 / 435.565
AO-7 26 May 06:53:00 07:01:21 74° 291° (WNW) 07:09:39 29.400- 29.500
Cosmos 2491 26 May 07:05:51 07:14:25 52° 284° (WNW) 07:22:59 435.465 / 435.565
NOAA 15 26 May 07:06:53 07:08:12 11° 89° (E) 07:09:32 137.62
HORYU 2 26 May 07:11:30 07:15:55 68° 102° (ESE) 07:20:20 437.375
CUBESAT XI-V 26 May 07:12:39 07:17:19 82° 258° (WSW) 07:22:02 437.345
AO-85 26 May 07:27:56 07:32:30 28° 112° (ESE) 07:37:04 145.980
STRAND 1 26 May 07:43:04 07:46:38 19° 63° (ENE) 07:50:12 437.568
CUTE-I 26 May 07:48:48 07:52:45 21° 93° (E) 07:56:41 437.470
LilacSat-2 26 May 07:49:18 07:51:26 15° 93° (E) 07:53:35 437.200
ISS 26 May 07:50:29 07:52:20 14° 230° (SW) 07:54:10 145.825
BRITE-PL 26 May 08:16:14 08:21:11 43° 97° (E) 08:25:42 437.365/2234.400
NOAA 18 26 May 08:22:50 08:28:10 51° 101° (E) 08:33:29 137.9125
Cosmos 2504 26 May 08:31:59 08:38:33 26° 277° (W) 08:45:21 435.465 / 435.565
Cubesat XI-IV 26 May 08:40:47 08:46:07 63° 102° (ESE) 08:51:25 437.490
NOAA 15 26 May 08:43:17 08:48:38 85° 285° (WNW) 08:53:54 137.62
AO-7 26 May 08:47:52 08:52:42 17° 311° (NW) 08:57:34 29.400- 29.500
HORYU 2 26 May 08:50:13 08:51:54 12° 298° (WNW) 08:53:35 437.375
GOMX 1 26 May 08:51:18 08:55:49 43° 97° (E) 09:00:02 467.674
AO-85 26 May 09:07:38 09:12:51 44° 308° (NW) 09:17:57 145.980
STRAND 1 26 May 09:20:28 09:25:24 51° 260° (W) 09:30:23 437.568
LilacSat-2 26 May 09:22:25 09:25:53 35° 288° (WNW) 09:29:20 437.200
CUTE-I 26 May 09:27:53 09:33:02 49° 289° (WNW) 09:38:10 437.470
Cosmos 2499 26 May 09:28:45 09:31:11 11° 58° (ENE) 09:33:38 435.465 / 435.565
CANX-2 26 May 09:30:20 09:32:58 16° 92° (E) 09:35:37 2200.000
SEEDS 26 May 09:37:57 09:39:30 12° 90° (E) 09:41:01 437.485
PRISM 26 May 09:43:47 09:47:48 52° 73° (ENE) 09:51:51 437.425
DOVE 4 26 May 09:49:57 09:54:25 87° 108° (ESE) 09:58:37 437.250
BRITE-PL 26 May 09:55:23 09:59:16 22° 296° (WNW) 10:02:56 437.365/2234.400
CUTE 1.7 + AOD 2 26 May 09:57:07 10:00:48 27° 96° (E) 10:04:28 437.475
NOAA 18 26 May 10:04:22 10:08:27 22° 297° (WNW) 10:12:33 137.9125
GONETS M04 26 May 10:06:24 10:14:14 35° 71° (ENE) 10:21:59
HO-68 26 May 10:17:44 10:24:43 52° 101° (E) 10:31:40 435.675
AUBIESAT-1 26 May 10:18:08 10:21:16 38° 104° (ESE) 10:24:22 437.475
Cubesat XI-IV 26 May 10:22:12 10:25:39 18° 298° (WNW) 10:29:05 437.490
AIST 1 26 May 10:22:46 10:27:09 79° 81° (E) 10:31:28
M-CUBED/EXP-1 PRIME 26 May 10:23:02 10:26:17 59° 106° (ESE) 10:29:30 437.505
COMPASS 1 26 May 10:25:50 10:29:32 29° 96° (E) 10:33:14 437.405
NOAA 15 26 May 10:25:53 10:27:33 11° 302° (WNW) 10:29:13 137.62
GOMX 1 26 May 10:30:17 10:33:30 18° 296° (WNW) 10:36:35 467.674
AAUSAT CUBESAT 2 26 May 10:30:23 10:33:56 26° 96° (E) 10:37:29 437.432
UWE-3 26 May 10:34:07 10:36:34 15° 92° (E) 10:39:01 435.000/436.395/437.385
SO-50 26 May 10:34:25 10:38:17 24° 46° (NE) 10:42:04 436.795
CINEMA 3 26 May 10:34:31 10:38:42 78° 100° (E) 10:42:50 145.822/145.860
FUNcube-1 26 May 10:44:21 10:45:59 12° 91° (E) 10:47:37 145.935
ANTELSAT 26 May 10:52:00 10:54:27 15° 65° (ENE) 10:56:54 437.575/2403.000
O/OREOS (USA 219) 26 May 10:56:49 11:00:38 27° 103° (ESE) 11:04:26 437.305
CANX-2 26 May 11:04:58 11:09:01 42° 288° (WNW) 11:13:04 2200.000
SEEDS 26 May 11:11:22 11:15:32 56° 286° (WNW) 11:19:41 437.485
DELFI C3 26 May 11:16:49 11:19:17 16° 92° (E) 11:21:45 145.870
PCSat 26 May 11:17:23 11:22:16 36° 110° (ESE) 11:27:11 145.827
Cosmos 2499 26 May 11:17:41 11:26:09 60° 78° (ENE) 11:34:53 435.465 / 435.565
PRISM 26 May 11:21:43 11:23:24 12° 269° (W) 11:25:07 437.425
Oscar 11 26 May 11:28:47 11:33:00 48° 99° (E) 11:37:12 145.826/435.025
CUTE 1.7 + AOD 2 26 May 11:33:04 11:36:32 25° 291° (WNW) 11:40:00 437.475
CUBEBUG 2 26 May 11:36:37 11:40:45 68° 285° (WNW) 11:44:55 437.445
ZACube-1 26 May 11:39:17 11:43:24 56° 101° (E) 11:47:34 437.345
UNISAT 6 26 May 11:45:09 11:49:27 56° 74° (ENE) 11:53:41 437.425
TIGRISAT 26 May 11:53:17 11:57:38 65° 75° (ENE) 12:01:55 435.000
AUBIESAT-1 26 May 11:54:24 11:55:27 11° 300° (WNW) 11:56:29 437.475
POPSAT HIP 1 26 May 11:54:28 11:56:19 13° 63° (ENE) 11:58:10 437.405
QB50P1 26 May 11:54:55 11:56:54 13° 64° (ENE) 11:58:51 145.935-145.965
QB50P2 26 May 11:56:14 11:58:30 14° 64° (ENE) 12:00:47 145.880/145.840
POLYITAN 1 26 May 11:58:36 12:00:57 15° 64° (ENE) 12:03:16 437.675
COMPASS 1 26 May 12:01:39 12:04:56 22° 292° (WNW) 12:08:14 437.405
GONETS M04 26 May 12:03:00 12:11:15 50° 271° (W) 12:19:27
HUMSAT D 26 May 12:04:00 12:07:26 24° 96° (E) 12:10:52 437.325/437.525
AAUSAT CUBESAT 2 26 May 12:05:54 12:09:19 25° 291° (WNW) 12:12:44 437.432
HO-68 26 May 12:06:01 12:12:06 31° 298° (WNW) 12:18:10 435.675
UWE-3 26 May 12:09:18 12:13:13 41° 288° (WNW) 12:17:12 435.000/436.395/437.385
CUSAT 1 26 May 12:10:09 12:12:33 12° 75° (ENE) 12:15:06 437.405
NANOSAT C BR1 26 May 12:13:11 12:16:14 20° 67° (ENE) 12:19:17 145.865
SO-50 26 May 12:14:32 12:18:56 42° 244° (WSW) 12:23:12 436.795
FUNcube-1 26 May 12:18:28 12:22:32 53° 286° (WNW) 12:26:39 145.935
ANTELSAT 26 May 12:26:31 12:30:46 49° 260° (W) 12:34:59 437.575/2403.000
JAS-2 26 May 12:31:42 12:35:06 14° 52° (NE) 12:38:34 435.910
O/OREOS (USA 219) 26 May 12:35:56 12:39:56 29° 300° (WNW) 12:43:55 437.305
DELFI C3 26 May 12:50:32 12:54:17 38° 288° (WNW) 12:58:02 145.870
DUCHIFAT 1 26 May 12:51:27 12:55:31 48° 73° (ENE) 12:59:35 145.980
ESTCUBE 1 26 May 12:51:52 12:54:43 16° 92° (E) 12:57:33 437.505/2401.250
BEESAT 2 26 May 12:58:35 13:00:27 13° 109° (ESE) 13:02:18 435.950
PCSat 26 May 13:00:47 13:05:39 33° 308° (NW) 13:10:32 145.827
Oscar 11 26 May 13:06:12 13:08:43 15° 295° (WNW) 13:11:15 145.826/435.025
Cosmos 2499 26 May 13:11:39 13:18:44 30° 276° (W) 13:26:01 435.465 / 435.565
BUGSAT 1 26 May 13:17:05 13:21:06 44° 72° (ENE) 13:25:05 437.445
ZACube-1 26 May 13:17:27 13:19:13 13° 296° (WNW) 13:21:01 437.345
CUBEBUG 1 26 May 13:18:49 13:22:09 21° 94° (E) 13:25:27 437.445
VELOX 1 26 May 13:21:00 13:24:26 22° 94° (E) 13:27:49 145.980
DX 1 26 May 13:22:03 13:25:04 18° 94° (E) 13:28:04 434.975-435.025
UNISAT 6 26 May 13:24:39 13:26:28 12° 269° (W) 13:28:17 437.425
DANDE 26 May 13:27:17 13:31:26 23° 82° (E) 13:36:28 436.750
POPSAT HIP 1 26 May 13:27:26 13:31:36 58° 259° (W) 13:35:48 437.405
QB50P1 26 May 13:28:01 13:32:11 56° 260° (W) 13:36:22 145.935-145.965
QB50P2 26 May 13:29:45 13:33:52 50° 260° (W) 13:38:01 145.880/145.840
POLYITAN 1 26 May 13:32:13 13:36:20 49° 260° (W) 13:40:27 437.675
TIGRISAT 26 May 13:33:55 13:34:43 10° 270° (W) 13:35:30 435.000
BEESAT 3 26 May 13:34:29 13:38:21 61° 119° (ESE) 13:42:15 437.485
HUMSAT D 26 May 13:39:32 13:42:59 26° 290° (WNW) 13:46:27 437.325/437.525
CUSAT 1 26 May 13:46:58 13:52:59 78° 96° (E) 14:00:33 437.405
NANOSAT C BR1 26 May 13:47:51 13:51:43 34° 262° (W) 13:55:36 145.865
Oscar 19 26 May 13:50:58 13:54:27 19° 63° (ENE) 13:57:58 437.125/150
SPROUT 26 May 13:53:57 13:57:02 19° 94° (E) 14:00:06 437.525
50 SAT 26 May 13:55:13 13:58:55 63° 101° (ESE) 14:02:36 437.505
AISAT 26 May 13:56:10 14:00:31 56° 101° (E) 14:04:49 437.250
JAS-2 26 May 14:11:22 14:18:31 64° 71° (ENE) 14:26:14 435.910
UKube-1 26 May 14:13:36 14:17:52 55° 101° (E) 14:22:05 .
TISAT 1 26 May 14:26:07 14:27:21 11° 91° (E) 14:28:33 437.305
ESTCUBE 1 26 May 14:27:23 14:31:46 46° 288° (WNW) 14:36:06 437.505/2401.250
DUCHIFAT 1 26 May 14:29:21 14:31:28 13° 268° (W) 14:33:35 145.980
BEESAT 2 26 May 14:33:57 14:37:50 52° 305° (NW) 14:41:44 435.950
AIST 2 26 May 14:53:30 14:55:46 14° 109° (ESE) 14:58:02 435.215
BUGSAT 1 26 May 14:54:16 14:56:40 15° 268° (W) 14:59:04 437.445
CUBEBUG 1 26 May 14:54:33 14:58:30 33° 290° (WNW) 15:02:23 437.445
VELOX 1 26 May 14:56:58 15:00:56 33° 290° (WNW) 15:04:53 145.980
DX 1 26 May 14:57:21 15:01:24 38° 289° (WNW) 15:05:24 434.975-435.025
DANDE 26 May 15:08:30 15:13:35 49° 287° (WNW) 15:20:17 436.750
BEESAT 3 26 May 15:14:12 15:16:26 14° 317° (NW) 15:18:41 437.485
Cosmos 2491 26 May 15:22:10 15:26:59 16° 60° (ENE) 15:31:46 435.465 / 435.565
Oscar 19 26 May 15:28:13 15:33:18 56° 259° (W) 15:38:27 437.125/150
SPROUT 26 May 15:29:13 15:33:03 34° 290° (WNW) 15:36:53 437.525
CUSAT 1 26 May 15:31:35 15:36:12 20° 299° (WNW) 15:41:26 437.405
AISAT 26 May 15:34:12 15:36:31 14° 297° (WNW) 15:38:49 437.250
Gurwin Techsat 1B 26 May 15:37:25 15:42:42 74° 74° (ENE) 15:48:01 435.225
UKube-1 26 May 15:51:16 15:53:26 14° 297° (WNW) 15:55:36 .
SWISSCUBE 26 May 15:54:16 15:58:07 24° 95° (E) 16:01:58 437.505
JAS-2 26 May 15:58:12 16:04:01 26° 270° (W) 16:10:14 435.910
TISAT 1 26 May 15:59:14 16:03:20 57° 287° (WNW) 16:07:24 437.305
ITUPSAT 1 26 May 15:59:30 16:03:22 24° 95° (E) 16:07:13 437.325
AO-7 26 May 15:59:59 16:07:05 33° 58° (ENE) 16:14:12 29.400- 29.500
AO-85 26 May 16:00:41 16:04:14 20° 43° (NE) 16:07:33 145.980
ITAMSAT 1 26 May 16:06:10 16:11:11 55° 72° (ENE) 16:16:15 435.822/435.867
BEESAT 26 May 16:23:40 16:28:13 42° 99° (E) 16:32:45 436.000
AIST 2 26 May 16:29:49 16:33:49 50° 305° (NW) 16:37:52 435.215
Cosmos 2491 26 May 17:16:35 17:25:24 79° 82° (E) 17:34:06 435.465 / 435.565
YUBILEINY 26 May 17:17:20 17:24:54 35° 85° (E) 17:32:29 435.215
Gurwin Techsat 1B 26 May 17:20:49 17:23:11 13° 270° (W) 17:25:35 435.225
SWISSCUBE 26 May 17:31:37 17:35:58 35° 291° (WNW) 17:40:18 437.505
ITUPSAT 1 26 May 17:36:54 17:41:16 35° 291° (WNW) 17:45:37 437.325
AO-85 26 May 17:40:35 17:45:03 50° 244° (WSW) 17:49:08 145.980
KKS-1 26 May 17:44:56 17:49:02 36° 98° (E) 17:53:07 437.445
ITAMSAT 1 26 May 17:47:38 17:50:59 17° 268° (W) 17:54:22 435.822/435.867
MOZHAYETS 4 26 May 17:48:56 17:53:03 31° 96° (E) 17:57:11
AO-7 26 May 17:51:19 17:59:25 58° 257° (WSW) 18:07:37 29.400- 29.500
RS-15 26 May 17:54:42 18:03:31 28° 101° (ESE) 18:12:38 29.354- 29.394
BEESAT 26 May 18:02:12 18:05:42 21° 295° (WNW) 18:09:12 436.000
HORYU 2 26 May 18:08:46 18:13:05 58° 73° (ENE) 18:17:26 437.375
NOAA 18 26 May 18:11:55 18:14:15 13° 58° (ENE) 18:16:35 137.9125
STARS 26 May 18:24:44 18:29:00 50° 100° (E) 18:33:13 437.465
NOAA 15 26 May 18:25:09 18:28:47 19° 62° (ENE) 18:32:26 137.62
Cubesat XI-IV 26 May 18:25:57 18:28:16 13° 59° (ENE) 18:30:36 437.490
CUTE-I 26 May 19:09:55 19:14:34 32° 67° (ENE) 19:19:15 437.470
CUBESAT XI-V 26 May 19:10:16 19:14:14 26° 95° (E) 19:18:09 437.345
YUBILEINY 26 May 19:13:04 19:21:22 49° 284° (WNW) 19:29:45 435.215
Cosmos 2491 26 May 19:15:13 19:21:09 21° 281° (W) 19:27:05 435.465 / 435.565
Cosmos 2504 26 May 19:15:47 19:22:42 53° 90° (E) 19:29:57 435.465 / 435.565
DOVE 4 26 May 19:21:00 19:21:52 10° 61° (ENE) 19:22:43 437.250
KKS-1 26 May 19:22:05 19:25:22 21° 294° (WNW) 19:28:37 437.445
BRITE-PL 26 May 19:25:00 19:30:23 49° 72° (ENE) 19:35:53 437.365/2234.400
MOZHAYETS 4 26 May 19:26:18 19:30:05 25° 292° (WNW) 19:33:52
HORYU 2 26 May 19:48:08 19:49:59 12° 269° (W) 19:51:51 437.375
NOAA 18 26 May 19:48:39 19:54:07 89° 259° (WSW) 19:59:36 137.9125
GOMX 1 26 May 19:57:25 20:02:41 49° 72° (ENE) 20:07:52 467.674
Cubesat XI-IV 26 May 20:02:16 20:07:35 85° 256° (WSW) 20:12:57 437.490
STARS 26 May 20:02:27 20:04:55 15° 296° (WNW) 20:07:24 437.465
NOAA 15 26 May 20:02:53 20:08:04 57° 259° (WSW) 20:13:20 137.62
RS-15 26 May 20:03:11 20:14:33 80° 303° (WNW) 20:26:37 29.354- 29.394
LilacSat-2 26 May 20:03:12 20:07:01 83° 258° (WSW) 20:10:50 437.200
PCSat 26 May 20:05:36 20:10:14 28° 50° (NE) 20:14:50 145.827
CANX-2 26 May 20:24:19 20:25:32 11° 63° (ENE) 20:26:45 2200.000
HO-68 26 May 20:45:57 20:52:20 37° 64° (ENE) 20:58:44 435.675
CUBESAT XI-V 26 May 20:47:26 20:51:35 31° 291° (WNW) 20:55:41 437.345
CUTE-I 26 May 20:49:54 20:54:33 31° 264° (W) 20:59:15 437.470
CUTE 1.7 + AOD 2 26 May 20:49:54 20:52:51 19° 67° (ENE) 20:55:49 437.475
DOVE 4 26 May 20:53:30 20:58:46 81° 76° (ENE) 21:03:53 437.250
AUBIESAT-1 26 May 21:03:08 21:07:12 52° 69° (ENE) 21:10:59 437.475
BRITE-PL 26 May 21:04:40 21:09:02 23° 268° (W) 21:13:31 437.365/2234.400
O/OREOS (USA 219) 26 May 21:06:38 21:10:59 46° 64° (ENE) 21:15:15 437.305
M-CUBED/EXP-1 PRIME 26 May 21:08:21 21:12:38 76° 70° (ENE) 21:16:35 437.505
Cosmos 2504 26 May 21:10:30 21:16:28 27° 291° (WNW) 21:22:42 435.465 / 435.565
COMPASS 1 26 May 21:16:41 21:19:37 19° 67° (ENE) 21:22:34 437.405
AAUSAT CUBESAT 2 26 May 21:20:54 21:23:34 17° 66° (ENE) 21:26:16 437.432
STRAND 1 26 May 21:31:16 21:36:20 56° 100° (E) 21:41:24 437.568
UWE-3 26 May 21:31:39 21:33:32 13° 64° (ENE) 21:35:23 435.000/436.395/437.385
NOAA 18 26 May 21:34:32 21:35:27 10° 271° (W) 21:36:23 137.9125
CINEMA 3 26 May 21:34:49 21:39:35 67° 75° (ENE) 21:44:09 145.822/145.860
GOMX 1 26 May 21:36:43 21:40:54 22° 267° (W) 21:45:06 467.674
PCSat 26 May 21:48:39 21:53:47 44° 248° (WSW) 21:58:53 145.827
BEESAT 3 26 May 21:52:29 21:56:00 30° 51° (NE) 21:59:30 437.485
CANX-2 26 May 21:56:39 22:00:49 65° 259° (WSW) 22:05:02 2200.000
SEEDS 26 May 22:02:04 22:06:14 89° 60° (ENE) 22:10:26 437.485
RS-15 26 May 22:19:31 22:29:17 30° 331° (NNW) 22:39:31 29.354- 29.394
Oscar 11 26 May 22:22:59 22:26:52 34° 71° (ENE) 22:30:46 145.826/435.025
CUTE 1.7 + AOD 2 26 May 22:24:35 22:28:26 35° 263° (W) 22:32:19 437.475
HO-68 26 May 22:33:13 22:39:54 43° 261° (W) 22:46:39 435.675
CUBEBUG 2 26 May 22:33:42 22:38:08 90° 79° (ENE) 22:42:27 437.445
ZACube-1 26 May 22:34:31 22:38:29 40° 72° (ENE) 22:42:25 437.345
DOVE 4 26 May 22:35:11 22:36:56 12° 271° (W) 22:38:40 437.250
AUBIESAT-1 26 May 22:40:07 22:41:51 12° 262° (W) 22:43:32 437.475
CUSAT 1 26 May 22:44:05 22:46:39 12° 54° (NE) 22:49:08 437.405
O/OREOS (USA 219) 26 May 22:47:16 22:49:57 16° 261° (W) 22:52:36 437.305
AIST 1 26 May 22:51:10 22:55:23 47° 93° (E) 22:59:38
COMPASS 1 26 May 22:51:11 22:54:56 34° 263° (W) 22:58:45 437.405
BEESAT 2 26 May 22:52:23 22:56:23 74° 57° (ENE) 23:00:21 435.950
ISS 26 May 22:52:32 22:55:11 23° 133° (SE) 22:57:51 145.825
AAUSAT CUBESAT 2 26 May 22:54:54 22:58:45 38° 262° (W) 23:02:38 437.432
HUMSAT D 26 May 22:55:39 22:58:14 16° 66° (ENE) 23:00:49 437.325/437.525
PRISM 26 May 23:00:54 23:05:06 87° 284° (WNW) 23:09:15 437.425
UWE-3 26 May 23:05:16 23:09:32 57° 260° (W) 23:13:43 435.000/436.395/437.385
GONETS M04 26 May 23:06:42 23:14:44 41° 87° (E) 23:22:44
STRAND 1 26 May 23:11:37 23:15:03 18° 297° (WNW) 23:18:29 437.568
FUNcube-1 26 May 23:13:02 23:17:17 76° 258° (WSW) 23:21:28 145.935
AIST 2 26 May 23:15:07 23:16:31 11° 40° (NE) 23:17:54 435.215
CINEMA 3 26 May 23:15:16 23:17:03 12° 269° (W) 23:18:49 145.822/145.860
BEESAT 3 26 May 23:30:25 23:33:34 23° 247° (WSW) 23:36:41 437.485
DELFI C3 26 May 23:35:21 23:39:17 74° 258° (WSW) 23:43:16 145.870
UNISAT 6 26 May 23:39:25 23:40:52 11° 91° (E) 23:42:20 437.425
TIGRISAT 26 May 23:46:50 23:48:56 13° 92° (E) 23:51:02 435.000
ESTCUBE 1 26 May 23:51:30 23:54:02 15° 63° (ENE) 23:56:34 437.505/2401.250
Cosmos 2499 26 May 23:54:16 00:01:00 45° 88° (E) 00:08:11 435.465 / 435.565
Oscar 11 26 May 23:59:57 00:03:05 20° 267° (W) 00:06:13 145.826/435.025
DANDE 27 May 00:05:02 00:12:01 28° 66° (ENE) 00:18:35 436.750
ZACube-1 27 May 00:12:18 00:14:56 16° 267° (W) 00:17:34 437.345
CUBEBUG 1 27 May 00:14:40 00:17:38 18° 65° (ENE) 00:20:36 437.445
DX 1 27 May 00:17:34 00:20:15 16° 64° (ENE) 00:22:56 434.975-435.025
VELOX 1 27 May 00:18:07 00:21:17 19° 66° (ENE) 00:24:27 145.980
ANTELSAT 27 May 00:18:38 00:22:30 32° 97° (E) 00:26:24 437.575/2403.000
CUSAT 1 27 May 00:22:55 00:30:42 60° 76° (ENE) 00:37:10 437.405
PHONESAT 2.4 27 May 00:24:10 00:27:00 32° 157° (SSE) 00:29:52 2401.200-2431.200
ISS 27 May 00:28:25 00:31:29 38° 330° (NNW) 00:34:35 145.825
HUMSAT D 27 May 00:29:44 00:33:33 38° 262° (W) 00:37:23 437.325/437.525
AIST 1 27 May 00:30:47 00:33:15 15° 290° (WNW) 00:35:44
50 SAT 27 May 00:33:18 00:36:19 25° 70° (ENE) 00:39:21 437.505
RS-15 27 May 00:38:52 00:47:28 21° 7° (N) 00:56:13 29.354- 29.394
SPROUT 27 May 00:47:48 00:50:15 15° 65° (ENE) 00:52:42 437.525
AIST 2 27 May 00:51:29 00:55:39 85° 58° (ENE) 00:59:47 435.215
AISAT 27 May 00:52:43 00:57:00 46° 72° (ENE) 01:01:17 437.250
GONETS M04 27 May 01:03:14 01:11:28 43° 286° (WNW) 01:19:42
UKube-1 27 May 01:07:24 01:11:30 43° 71° (ENE) 01:15:37 .
POPSAT HIP 1 27 May 01:13:19 01:16:38 22° 95° (E) 01:19:56 437.405
UNISAT 6 27 May 01:13:43 01:17:56 58° 286° (WNW) 01:22:13 437.425
QB50P1 27 May 01:13:48 01:17:10 23° 95° (E) 01:20:32 145.935-145.965
QB50P2 27 May 01:15:33 01:19:05 25° 96° (E) 01:22:35 145.880/145.840
POLYITAN 1 27 May 01:17:59 01:21:31 26° 96° (E) 01:25:02 437.675
TIGRISAT 27 May 01:21:45 01:25:53 50° 287° (WNW) 01:30:05 435.000
ESTCUBE 1 27 May 01:25:58 01:30:22 55° 259° (W) 01:34:50 437.505/2401.250
NANOSAT C BR1 27 May 01:32:32 01:36:25 36° 98° (E) 01:40:16 145.865
DANDE 27 May 01:47:10 01:55:34 69° 265° (W) 02:03:09 436.750
Cosmos 2499 27 May 01:47:56 01:54:18 32° 289° (WNW) 02:01:03 435.465 / 435.565
CUBEBUG 1 27 May 01:49:21 01:53:34 43° 261° (W) 01:57:49 437.445
DX 1 27 May 01:51:49 01:56:02 47° 260° (W) 02:00:18 434.975-435.025
VELOX 1 27 May 01:53:15 01:57:27 40° 261° (W) 02:01:40 145.980
ANTELSAT 27 May 01:55:46 01:59:02 21° 292° (WNW) 02:02:20 437.575/2403.000
